Home   Weather   Lae   Past weeks
Flag for Papua New Guinea

Past Weather in Lae, Papua New Guinea — Yesterday and Last 2 Weeks

Now
88 °F

Passing clouds.


Feels Like: 96 °F
Forecast: 96 / 77 °F
Wind: 17 mph from West

Location: Moresby

Current Time: Feb 21, 2019 at 6:22:24 pm

Latest Report: Feb 21, 2019 at 4:00 pm


Visibility: N/A

Pressure: 29.77 "Hg

Humidity: 62%

Dew Point: 73 °F

Location of LaeLocation

Past Weather in Lae — Graph

°F

Lae Temperature Yesterday

Maximum temperature yesterday: 86 °F (at 3:00 pm)
Minimum temperature yesterday: 75 °F (at 5:00 am)
Average temperature yesterday: 81 °F

High & Low Weather Summary for the Past Weeks

 TemperatureHumidityPressure
High93 °F (Feb 8, 3:00 pm)100% (Feb 11, 7:00 am)29.95 "Hg (Feb 11, 7:00 am)
Low73 °F (Feb 14, 1:00 am)44% (Feb 8, 3:00 pm)29.62 "Hg (Feb 8, 4:00 pm)
Average82 °F79%29.82 "Hg
* Reported Feb 6 4:00 pm — Feb 21 4:00 pm, Lae. Weather by CustomWeather, © 2019

Note: Actual official high and low records may vary slightly from our data, if they occured in-between our weather recording intervals... More about our weather records

Advertising

Lae Weather History for the Previous 24 Hours

Scroll right to see more
 ConditionsComfort  
Time TempWeatherWind HumidityBarometerVisibility
4:00 pm
Thu, Feb 21
88 °FPassing clouds.17 mph62%29.77 "HgN/A
3:00 pm90 °FScattered clouds.12 mph59%29.77 "HgN/A
12:00 pm90 °FScattered clouds.22 mph59%29.86 "HgN/A
11:00 am88 °FPassing clouds.17 mph62%29.89 "HgN/A
10:00 am86 °FPassing clouds.21 mph62%29.89 "HgN/A
9:00 am81 °FScattered clouds.13 mph79%29.89 "HgN/A
8:00 am81 °FScattered clouds.14 mph79%29.89 "HgN/A
7:00 am79 °FScattered clouds.10 mph84%29.89 "HgN/A
6:00 am75 °FPassing clouds.7 mph89%29.83 "HgN/A
5:00 am75 °FPassing clouds.12 mph89%29.83 "HgN/A
4:00 am75 °FPassing clouds.12 mph94%29.83 "HgN/A
3:00 am75 °FPassing clouds.12 mph94%29.83 "HgN/A
2:00 am77 °FPassing clouds.12 mph89%29.83 "HgN/A
1:00 am77 °FPassing clouds.12 mph89%29.86 "HgN/A
8:00 pm
Wed, Feb 20
81 °FPassing clouds.12 mph84%29.86 "HgN/A
7:00 pm81 °FPassing clouds.12 mph84%29.83 "HgN/A
6:00 pm82 °FScattered clouds.17 mph74%29.83 "HgN/A
Weather by CustomWeather, © 2019

See weather overview